TimeEST,TemperatureF,Dew PointF,Humidity,Sea Level PressureIn,VisibilityMPH,Wind Direction,Wind SpeedMPH,Gust SpeedMPH,PrecipitationIn,Events,Conditions,WindDirDegrees,DateUTC
12:00 AM,6.8,-7.6,52,30.65,15.0,North,8.1,-,N/A,,Clear,360,2014-03-06 05:00:00
1:00 AM,5,-9,35,30.66,15,North,5.8,,,,,350,2014-03-06 06:00:00
1:00 AM,5.0,-9.4,52,30.66,15.0,North,5.8,-,N/A,,Clear,360,2014-03-06 06:00:00
2:00 AM,5.0,-9.4,52,30.66,15.0,North,9.2,-,N/A,,Clear,360,2014-03-06 07:00:00
3:00 AM,3.2,-9.4,56,30.66,15.0,North,9.2,-,N/A,,Clear,360,2014-03-06 08:00:00
4:00 AM,1.4,-11.2,56,30.67,15.0,North,5.8,-,N/A,,Clear,360,2014-03-06 09:00:00
5:00 AM,-0.4,-11.2,60,30.69,15.0,North,8.1,-,N/A,,Clear,10,2014-03-06 10:00:00
6:00 AM,-4.0,-14.8,60,30.70,15.0,Calm,Calm,-,N/A,,Clear,0,2014-03-06 11:00:00
7:00 AM,-5,-14,50,30.71,15,NNE,3.5,,,,,30,2014-03-06 12:00:00
7:00 AM,-5.8,-13.0,71,30.71,15.0,NNE,3.5,-,N/A,,Clear,30,2014-03-06 12:00:00
8:00 AM,-0.4,-11.2,60,30.72,15.0,NE,8.1,-,N/A,,Clear,40,2014-03-06 13:00:00
9:00 AM,3.2,-13.0,47,30.74,15.0,East,3.5,-,N/A,,Clear,100,2014-03-06 14:00:00
10:00 AM,6.8,-11.2,44,30.71,15.0,ESE,8.1,-,N/A,,Clear,110,2014-03-06 15:00:00
11:00 AM,10.4,-11.2,37,30.70,15.0,East,3.5,-,N/A,,Clear,100,2014-03-06 16:00:00
12:00 PM,14.0,-9.4,35,30.68,15.0,Calm,Calm,-,N/A,,Clear,0,2014-03-06 17:00:00
1:00 PM,14,-11,17,30.64,15,WNW,2.3,,,,,290,2014-03-06 18:00:00
1:00 PM,14.0,-11.2,32,30.64,15.0,WNW,3.5,-,N/A,,Clear,300,2014-03-06 18:00:00
2:00 PM,15.8,-11.2,30,30.62,15.0,Calm,Calm,-,N/A,,Clear,0,2014-03-06 19:00:00
3:00 PM,15.8,-5.8,38,30.60,15.0,ESE,6.9,-,N/A,,Clear,120,2014-03-06 20:00:00
4:00 PM,15.8,-7.6,35,30.57,15.0,ESE,6.9,-,N/A,,Clear,110,2014-03-06 21:00:00
5:00 PM,15.8,-11.2,30,30.53,15.0,East,6.9,-,N/A,,Clear,90,2014-03-06 22:00:00
6:00 PM,10.4,-9.4,41,30.52,15.0,East,5.8,-,N/A,,Clear,90,2014-03-06 23:00:00
7:00 PM,9,-13,21,30.51,15,East,4.6,,,,,100,2014-03-07 00:00:00
7:00 PM,8.6,-13.0,37,30.51,15.0,East,4.6,-,N/A,,Clear,100,2014-03-07 00:00:00
8:00 PM,6.8,-11.2,44,30.48,15.0,East,6.9,-,N/A,,Clear,90,2014-03-07 01:00:00
9:00 PM,6.8,-11.2,44,30.47,15.0,East,6.9,-,N/A,,Clear,90,2014-03-07 02:00:00
10:00 PM,5.0,-13.0,43,30.44,15.0,East,8.1,-,N/A,,Clear,100,2014-03-07 03:00:00
11:00 PM,3.2,-13.0,47,30.41,15.0,East,5.8,-,N/A,,Clear,100,2014-03-07 04:00:00